[Iaude] MPEC N90: 2024 NU1 [a=1.42,e=0.25,i=2.1,H=24.0]
    mpec at cfa.harvard.edu 
    mpec at cfa.harvard.edu
       
    Mon Jul  8 02:38:11 EDT 2024
    
    
  
M.P.E.C. 2024-N90                                  Issued 2024 July 8, 06:36 UT
     The Minor Planet Electronic Circulars contain information on unusual
         minor planets, routine data on comets and natural satellites,
         and occasional editorial announcements.  They are published
    on behalf of Division F of the International Astronomical Union by the
          Minor Planet Center, Smithsonian Astrophysical Observatory,
                          Cambridge, MA 02138, U.S.A.
			  
             Prepared using the Tamkin Foundation Computer Network
                              MPC at CFA.HARVARD.EDU
            URL https://www.minorplanetcenter.net/    ISSN 1523-6714
                                    2024 NU1                                    
Observations:
     K24N01U* C2024 07 06.50771621 10 40.625-25 00 14.92         21.74wXEN090F52
     K24N01U  C2024 07 06.53002821 10 43.910-25 00 26.13         21.98wXEN090F52
     K24N01U  C2024 07 06.54119121 10 45.532-25 00 31.51         21.71wXEN090F52
     K24N01U  C2024 07 06.60769721 10 55.357-25 01 01.69         21.55GVEN090F52
     K24N01U  C2024 07 06.60835321 10 55.457-25 01 01.85         21.68GVEN090F52
     K24N01U $C2024 07 07.09208121 12 19.687-25 05 07.40               VEN090J04
     K24N01U $C2024 07 07.12221421 12 24.180-25 05 22.64               VEN090J04
     K24N01U |C2024 07 08.22557021 15 34.620-25 13 51.90         21.2 GVEN090807
     K24N01U |C2024 07 08.23445021 15 35.960-25 13 57.10         21.6 GVEN090807
     K24N01U |C2024 07 08.24319021 15 37.280-25 14 02.20         21.4 GVEN090807
Observer details:
807 Cerro Tololo Observatory, La Serena.  Observers T. Linder, R. Holmes.
    0.61-m f/6.8 Ritchey-Chretien + CCD.
F52 Pan-STARRS 2, Haleakala.  Observers J. Herman, T. Lowe, P. Minguez, A.
    Schultz, I. Smith.  Measurers K. Chambers, T. de Boer, J. Fairlamb, H.
    Gao, M. Huber, C.-C. Lin, E. Magnier, Y. Ramanjooloo, R. Wainscoat, R.
    Weryk.  1.8-m Ritchey-Chretien + CCD.
J04 ESA Optical Ground Station, Tenerife.  Observers P. Ruiz, M. Micheli, F.
    Ocana, L. Conversi.  Measurers F. Ocana, M. Micheli, R. Kresken.
    1.0-m f/4.4 reflector + CCD.
Orbital elements:
2024 NU1                                                 Earth MOID = 0.0697 AU
Epoch 2024 Mar. 31.0 TT = JDT 2460400.5                 MPC                     
M 267.24078              (2000.0)            P               Q                  
n   0.58144283     Peri.  275.16892     +0.97241598     +0.23067545             
a   1.4216675      Node    71.49759     -0.19694837     +0.89142627             
e   0.2503402      Incl.    2.08993     -0.12497396     +0.39006158             
P   1.70           H   24.06          G   0.15           U   9                  
Residuals in seconds of arc
240706 F52  0.1-  0.1+    240706 F52  0.1+  0.1+    240708 807  0.1-  0.1-
240706 F52  0.1+  0.1-    240707 J04  0.1+  0.2-    240708 807  0.5-  0.4-
240706 F52  0.0   0.1-    240707 J04  0.1-  0.2+
240706 F52  0.0   0.0     240708 807  0.3+  0.2+
Ephemeris:
2024 NU1                 a,e,i = 1.42, 0.25, 2                   q = 1.0658
Date    TT    R. A. (2000) Decl.     Delta      r    Elong.  Phase     V
2024 06 08    20 05 17.6 -22 35 15   0.3229  1.2753   138.6    31.7    23.5
...
2024 06 23    20 36 59.3 -23 29 42   0.2391  1.2215   145.8    27.9    22.6
...
2024 07 01    20 56 03.6 -24 17 56   0.2019  1.1943   149.0    26.0    22.2
...
2024 07 07    21 12 03.0 -25 03 42   0.1774  1.1750   151.0    24.8    21.8
2024 07 08    21 14 54.1 -25 12 03   0.1735  1.1718   151.2    24.7    21.7
2024 07 09    21 17 48.9 -25 20 34   0.1698  1.1687   151.5    24.5    21.7
...
2024 07 15    21 36 48.2 -26 14 22   0.1491  1.1507   152.5    24.1    21.4
...
2024 07 23    22 07 09.8 -27 25 51   0.1258  1.1288   152.3    24.7    21.0
...
2024 08 07    23 23 17.6 -28 23 48   0.09531 1.0951   146.8    30.5    20.5
A. U. Tomatic                (C) Copyright 2024 MPC           M.P.E.C. 2024-N90
    
    
More information about the Iaude
mailing list